Wetbulb
58.65 58.94 58.17 57.27 56.23 55.13 54.97 54.72 52.54 49.92 50.15 48.77 46.39 45.16 43.53 43.53 44.63 46.06 47.37 47.71 48.87 49.20 48.07 47.85 47.90 48.31 48.13 47.41 47.61 47.28 48.42 48.17 48.34 46.35 44.55 44.78 44.75 42.28 42.32 42.30 42.64 43.65 43.37
56.85 56.59 55.87 55.52 55.63 54.17 53.67 52.34 51.24 49.19 48.80 47.89 45.84 44.61 43.54 43.73 43.93 44.65 46.18 47.97 48.04 48.68 48.94 48.01 47.49 47.82 47.70 47.45 47.53 47.32 46.10 44.97 45.72 47.00 44.33 41.86 41.26 41.16 41.47 41.97 42.92 42.02 43.89
56.09 55.73 55.07 54.50 52.74 52.41 52.31 51.62 50.22 49.23 48.89 47.81 46.00 44.39 43.33 43.19 43.50 45.13 46.26 47.01 48.06 48.25 48.17 48.17 47.95 47.15 47.59 46.34 45.58 46.20 46.04 43.85 43.11 43.19 46.02 40.75 37.17 37.69 41.45 40.81 41.43 41.61 41.98
56.82 56.82 55.26 53.88 52.42 52.04 50.82 50.40 50.02 48.93 47.68 46.69 44.57 42.92 41.18 40.47 41.79 42.46 43.46 46.12 47.17 47.88 47.97 47.60 46.86 46.45 45.98 44.99 44.90 45.09 42.91 43.33 40.92 41.26 41.92 40.20 41.07 38.44 37.60 39.40 40.32 41.32 40.69
55.79 55.73 55.47 54.88 53.08 51.34 50.23 49.65 49.33 48.60 46.49 45.85 44.49 42.40 41.71 41.43 41.38 41.43 41.64 42.97 44.36 45.44 46.03 45.11 44.37 43.91 43.57 42.29 41.69 40.93 40.49 40.05 39.66 39.19 38.29 38.29 38.50 38.41 37.33 32.67 34.84 37.96 38.33
55.10 55.30 55.95 55.36 54.01 52.32 50.11 49.05 49.07 48.62 46.15 45.31 43.76 42.96 41.48 40.48 39.85 39.41 39.98 41.25 42.03 42.97 43.88 43.97 42.88 42.62 42.34 41.95 41.26 40.58 40.02 39.66 39.70 39.59 39.05 37.59 35.72 34.71 33.50 32.28 32.71 33.13 35.67
54.04 53.49 53.25 54.46 53.80 52.49 51.08 49.90 49.01 48.74 46.21 44.59 43.56 42.80 41.39 40.60 39.41 38.87 39.30 40.08 40.19 40.52 41.37 41.88 42.20 41.78 41.56 41.38 40.60 39.75 39.11 38.64 38.40 37.93 37.72 38.08 37.64 37.74 36.44 34.32 32.89 32.12 34.53
54.27 53.52 53.53 54.44 53.84 53.73 52.38 51.40 49.80 49.38 46.63 44.92 43.24 42.28 41.07 40.53 39.57 39.35 39.92 40.08 40.08 40.42 40.54 41.20 41.44 41.23 41.03 40.46 39.83 38.96 38.40 37.83 37.77 37.68 37.86 37.85 37.57 37.91 37.30 35.80 32.97 30.81 32.10
54.25 53.82 54.06 54.39 53.56 53.75 52.97 52.03 50.51 49.79 47.32 45.31 43.22 42.00 41.46 40.56 39.89 39.63 40.19 39.84 40.45 41.50 40.75 41.12 40.81 40.76 40.31 39.78 39.05 38.26 37.61 37.72 37.43 37.18 37.32 36.89 36.48 36.80 36.90 36.23 35.34 31.77 27.94
54.35 54.49 54.32 54.06 54.33 53.84 53.61 52.61 51.54 49.40 47.77 45.44 43.85 43.09 42.41 41.48 40.25 40.38 39.95 40.11 40.61 41.07 40.59 40.29 40.32 40.13 39.84 39.52 38.81 37.93 37.79 37.67 37.19 37.20 36.15 35.28 34.73 35.04 34.94 34.35 34.18 33.65 31.46
54.35 54.41 54.00 54.02 54.65 54.06 53.37 51.96 50.74 49.18 47.45 45.80 44.15 42.74 42.45 42.14 40.85 41.11 40.88 40.44 41.02 40.41 40.52 40.67 40.31 40.01 39.38 38.94 38.13 37.98 38.15 37.26 36.40 35.77 34.97 33.75 33.83 33.04 32.54 32.66 32.72 32.06 31.65
54.77 54.23 53.89 53.71 53.70 53.25 53.49 52.21 50.70 49.30 47.72 46.71 44.27 43.32 42.75 42.43 41.14 41.54 41.39 41.05 40.89 40.88 40.92 41.01 40.72 40.15 39.34 38.77 38.28 38.37 38.01 37.06 35.86 34.82 33.63 33.32 34.96 31.54 31.61 31.68 31.43 31.21 30.93
54.01 53.22 53.05 52.86 53.49 53.67 53.67 52.48 50.95 49.39 48.13 46.70 44.39 43.17 42.40 42.38 41.74 41.77 41.66 41.80 41.19 41.14 40.83 40.75 40.28 39.71 39.18 38.54 38.16 38.17 37.72 36.99 35.63 33.88 33.46 32.96 31.86 30.26 30.50 30.84 30.94 31.10 32.62
52.92 52.35 52.57 52.61 53.83 54.15 53.86 52.62 50.80 49.72 48.33 46.72 44.83 43.18 42.70 42.75 42.43 42.50 42.09 42.00 41.66 40.99 40.47 40.26 40.28 39.80 39.04 39.17 38.89 38.09 36.93 36.65 36.24 35.54 34.62 34.36 32.65 30.71 30.15 31.20 30.43 30.61 29.93
52.18 52.20 52.22 52.43 53.19 53.63 53.68 52.39 50.91 49.55 48.43 46.70 44.89 43.66 43.74 43.42 43.14 42.75 42.36 42.14 41.72 41.15 40.72 40.09 39.62 39.26 38.92 39.16 37.98 37.78 36.66 36.25 36.04 36.07 35.40 35.06 35.85 36.74 34.66 31.31 30.15 29.79 29.22
52.37 52.65 52.61 52.25 52.77 53.37 53.40 51.72 50.67 49.13 48.40 46.74 44.89 44.46 43.72 43.50 43.23 42.61 42.23 42.08 41.41 40.60 39.98 39.19 38.87 37.52 39.00 38.22 38.00 36.98 36.04 36.56 36.01 35.26 34.49 36.11 36.00 34.75 36.26 36.39 34.78 32.08 29.21
52.22 52.08 51.37 51.86 52.91 53.42 53.83 51.12 50.31 49.60 48.08 46.61 45.19 44.44 44.14 43.54 43.13 42.81 42.19 41.72 40.36 39.15 38.87 38.79 38.50 36.88 36.15 37.65 37.98 36.76 35.66 34.95 34.55 34.09 34.39 35.27 34.23 32.84 32.71 33.91 34.02 33.88 33.84
52.52 52.35 51.72 51.88 53.45 54.07 53.52 51.82 50.42 48.88 47.75 46.14 45.17 44.75 44.27 43.61 43.02 42.64 42.00 41.44 40.13 39.28 38.64 38.10 37.99 36.52 36.02 37.23 37.61 36.10 34.74 33.99 34.51 33.87 34.52 32.32 30.74 30.50 31.88 29.88 29.73 29.89 30.46
53.42 53.24 52.86 52.36 52.87 53.18 52.47 50.68 49.18 48.92 47.54 46.00 45.08 44.77 44.45 43.68 42.97 41.97 41.27 40.97 39.91 38.18 38.49 38.89 37.82 35.69 34.44 36.21 36.42 35.40 34.53 34.39 34.03 34.74 34.65 32.21 30.61 33.50 35.32 30.10 29.24 29.00 29.96
49.97 51.81 51.69 51.18 51.13 52.01 50.71 49.65 48.46 47.85 46.85 46.37 45.83 45.40 44.88 43.92 43.08 42.25 41.07 39.86 40.75 39.76 40.12 38.52 38.35 36.87 34.84 35.21 35.89 35.17 34.05 33.55 33.23 33.10 33.34 33.54 31.19 33.08 33.68 29.26 28.95 27.28 27.54
47.01 51.46 50.41 50.22 50.25 51.25 49.66 48.98 48.17 47.25 48.11 47.54 46.55 45.42 45.01 44.05 43.73 42.26 41.49 41.17 40.25 39.85 38.80 38.89 37.84 36.95 35.46 33.31 35.53 35.29 33.23 33.41 32.04 31.39 30.76 30.21 33.12 33.68 33.97 31.68 29.29 28.83 28.47
48.68 51.13 49.95 49.61 50.21 50.55 49.50 48.74 47.62 48.74 48.14 47.08 45.97 45.20 44.62 44.47 43.24 41.82 41.15 41.09 40.44 39.03 37.76 37.19 36.33 36.80 35.13 34.58 35.26 35.07 34.94 34.43 32.39 30.64 30.14 30.18 33.48 34.00 33.68 30.93 31.75 32.13 27.88
49.91 51.36 50.13 48.84 49.29 49.97 50.05 48.23 48.62 47.89 46.83 46.31 45.13 44.50 43.93 43.77 42.67 41.79 40.36 40.33 40.33 39.75 38.16 37.82 36.97 34.65 34.53 32.94 34.48 34.95 34.82 34.02 31.88 31.92 31.31 31.99 33.53 33.54 31.58 32.32 32.16 29.15 25.36
48.40 50.63 49.41 48.28 47.94 49.07 49.67 49.05 48.28 47.54 46.45 45.37 44.54 43.92 42.86 42.41 42.01 42.35 41.49 41.02 39.95 39.30 39.11 38.16 36.44 34.45 33.24 31.88 30.86 31.18 31.83 29.60 30.18 29.73 31.14 29.49 29.60 28.58 27.61 28.42 30.37 28.75 27.22
48.35 49.73 49.41 48.72 48.57 49.18 49.11 48.32 47.45 47.10 45.64 45.05 44.28 43.21 43.01 42.08 41.65 41.75 41.52 41.41 41.65 41.09 39.90 39.76 38.78 35.53 34.79 34.91 33.46 32.01 30.07 29.23 29.70 29.34 28.55 27.60 27.80 27.99 28.14 28.27 28.40 27.85 27.22
47.74 48.12 48.58 49.06 48.81 49.21 48.66 47.71 47.83 47.14 45.57 43.69 43.24 42.47 41.91 41.45 41.56 40.70 36.75 35.54 38.66 37.73 38.04 37.94 39.54 38.15 37.65 35.40 34.87 34.43 33.58 32.73 30.08 28.44 27.56 27.33 27.97 28.67 28.97 28.13 27.14 26.42 25.79
MSLP
1013.96 1014.33 1014.93 1015.87 1016.51 1017.35 1017.99 1018.41 1018.70 1019.38 1019.75 1020.12 1020.74 1021.22 1021.71 1022.32 1022.31 1022.07 1022.14 1022.10 1021.90 1021.90 1022.52 1022.20 1022.15 1022.20 1022.08 1022.38 1022.82 1023.27 1023.68 1024.77 1025.03 1025.35 1026.36 1026.62 1026.83 1027.02 1026.87 1026.65 1026.62 1026.84 1027.10
1013.68 1014.28 1014.87 1015.79 1016.71 1017.47 1018.05 1018.37 1018.59 1019.37 1019.78 1019.91 1020.46 1021.01 1021.82 1022.70 1022.71 1022.51 1022.42 1022.54 1022.34 1022.69 1022.70 1022.89 1022.87 1022.61 1022.23 1022.78 1023.13 1023.53 1024.09 1024.94 1025.16 1025.52 1025.96 1026.93 1027.54 1027.63 1027.61 1027.34 1027.26 1027.64 1027.54
1013.15 1014.09 1014.70 1015.59 1016.63 1017.57 1017.92 1018.08 1018.64 1019.45 1019.85 1020.12 1020.71 1021.64 1022.02 1022.57 1023.01 1022.99 1022.90 1022.81 1022.79 1023.05 1023.19 1023.22 1023.29 1023.25 1022.86 1022.78 1023.44 1023.70 1023.99 1024.86 1025.73 1025.60 1025.85 1026.83 1027.69 1028.17 1028.16 1028.34 1028.27 1028.23 1028.24
1013.29 1013.77 1014.45 1015.56 1016.60 1017.27 1017.70 1018.08 1018.64 1019.28 1019.80 1020.30 1020.85 1021.71 1022.10 1022.79 1023.20 1023.21 1023.33 1023.33 1023.31 1023.43 1023.65 1023.81 1023.60 1023.50 1023.61 1023.55 1023.64 1024.10 1024.43 1024.53 1025.62 1025.88 1026.13 1026.06 1026.53 1027.75 1028.88 1029.04 1029.10 1028.84 1028.95
1012.59 1013.08 1014.02 1015.11 1016.34 1017.18 1017.73 1018.47 1018.80 1019.08 1019.88 1020.15 1020.87 1021.76 1022.21 1022.97 1023.31 1023.50 1023.82 1024.12 1024.01 1024.07 1024.30 1024.34 1024.22 1024.36 1024.21 1024.40 1024.58 1024.66 1024.82 1025.17 1025.71 1026.14 1026.70 1026.84 1027.00 1027.18 1027.86 1029.35 1029.79 1029.54 1029.73
1012.33 1013.25 1014.07 1014.83 1015.95 1016.97 1017.76 1018.62 1018.80 1019.26 1019.97 1020.38 1021.11 1021.62 1022.13 1023.20 1023.76 1024.11 1024.42 1024.51 1024.63 1024.76 1024.79 1024.83 1024.95 1025.00 1024.94 1024.90 1025.07 1025.26 1025.48 1025.97 1026.06 1026.54 1026.83 1027.26 1027.44 1028.01 1028.24 1029.20 1029.93 1030.00 1030.14
1011.56 1012.69 1013.52 1014.20 1015.25 1016.22 1017.36 1018.12 1018.68 1019.37 1020.00 1020.59 1021.27 1021.74 1022.05 1022.86 1023.73 1024.17 1024.49 1024.86 1025.20 1025.24 1025.35 1025.45 1025.49 1025.60 1025.47 1025.60 1025.67 1025.90 1026.39 1026.55 1026.79 1027.23 1027.71 1027.73 1027.91 1027.99 1028.42 1028.93 1029.92 1030.15 1030.19
1010.18 1011.27 1012.20 1013.15 1014.39 1015.39 1016.52 1017.29 1018.20 1019.12 1019.85 1020.54 1021.32 1021.79 1021.94 1022.90 1023.68 1024.07 1024.51 1024.82 1025.10 1025.40 1025.69 1025.89 1025.97 1026.07 1026.18 1026.30 1026.42 1026.89 1027.03 1027.25 1027.52 1027.94 1028.23 1028.40 1028.55 1028.55 1028.77 1029.19 1029.78 1030.46 1030.58
1009.09 1010.04 1011.32 1012.50 1013.73 1014.71 1015.51 1016.27 1017.51 1018.56 1019.40 1020.38 1021.15 1021.57 1021.61 1022.71 1023.69 1024.27 1024.63 1025.02 1025.25 1025.58 1026.00 1026.08 1026.32 1026.51 1026.68 1026.88 1027.25 1027.54 1027.71 1027.87 1028.30 1028.69 1028.76 1029.02 1029.30 1029.31 1029.44 1029.53 1029.63 1030.15 1030.95
1008.50 1009.62 1010.81 1012.00 1012.98 1013.88 1015.01 1016.04 1016.97 1017.79 1018.81 1019.99 1020.73 1021.11 1021.56 1022.54 1023.29 1024.23 1024.78 1025.08 1025.38 1025.59 1026.03 1026.35 1026.63 1026.97 1027.23 1027.48 1027.70 1028.02 1028.26 1028.55 1028.89 1029.06 1029.34 1029.78 1029.99 1030.06 1030.12 1030.17 1030.14 1030.18 1030.69
1007.56 1008.55 1009.82 1011.10 1012.18 1013.37 1014.52 1015.65 1016.68 1017.37 1018.38 1019.45 1020.35 1020.96 1021.83 1022.57 1023.01 1023.85 1024.57 1025.04 1025.31 1025.70 1026.05 1026.49 1026.96 1027.32 1027.58 1027.83 1028.08 1028.44 1028.68 1029.01 1029.26 1029.64 1029.93 1030.31 1030.43 1030.60 1030.77 1030.82 1030.84 1030.94 1030.99
1006.09 1007.53 1009.05 1010.61 1011.83 1013.05 1014.15 1015.19 1016.22 1016.85 1017.93 1018.97 1019.95 1020.60 1021.71 1022.38 1022.85 1023.57 1024.20 1024.77 1025.41 1025.81 1026.08 1026.47 1027.01 1027.46 1027.73 1028.00 1028.29 1028.68 1029.07 1029.31 1029.71 1030.12 1030.35 1030.62 1030.78 1031.06 1031.23 1031.35 1031.47 1031.48 1031.39
1006.00 1007.59 1009.11 1010.02 1011.02 1012.21 1013.34 1014.36 1015.28 1016.23 1017.42 1018.63 1019.55 1020.33 1021.53 1022.16 1022.60 1023.23 1023.94 1024.64 1025.29 1025.86 1026.26 1026.54 1027.01 1027.51 1027.85 1028.17 1028.46 1028.76 1029.21 1029.54 1029.85 1030.20 1030.48 1030.84 1031.06 1031.40 1031.58 1031.61 1031.66 1031.77 1031.78
1005.36 1006.59 1008.07 1009.03 1010.24 1011.46 1012.53 1013.63 1014.76 1015.79 1016.92 1018.12 1018.98 1019.96 1021.00 1021.49 1022.32 1023.01 1023.74 1024.40 1025.02 1025.75 1026.27 1026.60 1026.99 1027.38 1027.87 1028.19 1028.53 1028.94 1029.39 1029.68 1029.97 1030.32 1030.60 1030.92 1031.15 1031.43 1031.56 1031.59 1031.75 1031.88 1031.91
1005.40 1006.23 1007.09 1008.26 1009.73 1011.09 1012.18 1013.31 1014.42 1015.46 1016.48 1017.52 1018.50 1019.50 1020.55 1021.06 1021.90 1022.71 1023.42 1024.14 1024.85 1025.47 1026.00 1026.59 1027.05 1027.41 1027.77 1028.14 1028.59 1028.93 1029.40 1029.69 1030.17 1030.52 1030.71 1030.97 1031.08 1031.10 1031.20 1031.36 1031.69 1031.86 1032.01
1004.78 1005.56 1006.57 1007.87 1009.14 1009.88 1010.92 1012.18 1013.55 1014.79 1015.77 1017.04 1017.96 1019.18 1020.09 1020.70 1021.42 1022.33 1023.02 1023.83 1024.61 1025.28 1025.96 1026.58 1027.06 1027.48 1027.54 1028.00 1028.37 1028.83 1029.42 1029.78 1030.11 1030.57 1030.82 1030.97 1031.11 1031.27 1031.29 1031.28 1031.48 1031.81 1031.99
1004.47 1005.27 1005.93 1006.86 1007.95 1008.96 1009.89 1011.25 1012.51 1014.00 1015.37 1016.43 1017.59 1018.58 1019.53 1020.24 1020.98 1021.89 1022.71 1023.55 1024.36 1025.03 1025.79 1026.35 1026.89 1027.35 1027.67 1027.99 1028.35 1028.87 1029.34 1029.76 1030.14 1030.44 1030.74 1031.02 1031.22 1031.52 1031.74 1031.73 1031.85 1031.99 1031.96
1003.92 1004.45 1005.21 1006.14 1007.21 1008.59 1009.98 1011.33 1012.45 1013.69 1014.89 1015.98 1016.95 1017.98 1018.91 1019.74 1020.60 1021.52 1022.35 1023.17 1023.97 1024.76 1025.48 1026.10 1026.74 1027.25 1027.64 1028.06 1028.39 1028.89 1029.31 1029.70 1030.01 1030.28 1030.67 1031.03 1031.47 1031.64 1031.81 1032.18 1032.33 1032.40 1032.27
1003.61 1003.36 1003.90 1004.98 1006.64 1007.84 1009.21 1010.68 1012.07 1013.35 1014.50 1015.28 1016.28 1017.20 1018.12 1019.16 1020.11 1021.04 1021.94 1022.75 1023.56 1024.46 1025.11 1025.71 1026.48 1027.13 1027.61 1028.06 1028.46 1028.85 1029.29 1029.66 1029.91 1030.16 1030.64 1031.03 1031.39 1031.33 1031.48 1032.05 1032.40 1032.48 1032.30
1004.23 1004.25 1004.29 1005.43 1006.56 1007.66 1008.83 1010.10 1011.32 1012.39 1013.44 1014.31 1015.30 1016.38 1017.44 1018.45 1019.45 1020.35 1021.44 1022.21 1023.01 1023.91 1024.68 1025.44 1025.97 1026.67 1027.25 1027.81 1028.28 1028.66 1029.20 1029.61 1030.03 1030.43 1030.78 1030.95 1031.17 1031.25 1031.61 1032.14 1032.37 1032.54 1032.49
1003.96 1003.72 1004.62 1004.60 1005.31 1006.87 1008.21 1009.49 1010.62 1011.35 1012.27 1013.69 1014.81 1015.88 1016.87 1017.79 1018.75 1019.93 1020.95 1021.77 1022.69 1023.58 1024.31 1025.02 1025.65 1026.23 1026.67 1027.37 1027.78 1028.25 1028.80 1029.24 1029.93 1030.35 1030.86 1031.20 1031.13 1031.33 1031.62 1031.98 1032.30 1032.29 1032.45
1003.09 1003.16 1004.16 1004.89 1005.36 1006.43 1007.76 1008.97 1009.77 1010.91 1012.11 1013.27 1014.38 1015.45 1016.49 1017.53 1018.60 1019.60 1020.60 1021.42 1022.23 1023.21 1024.15 1024.87 1025.53 1025.88 1026.36 1026.75 1027.40 1027.79 1028.09 1028.75 1029.43 1030.04 1030.55 1030.95 1031.01 1031.24 1031.54 1032.00 1032.04 1032.08 1032.44
1002.87 1002.68 1003.23 1004.27 1005.66 1006.22 1006.98 1008.15 1009.23 1010.54 1011.71 1012.94 1014.08 1015.18 1016.26 1017.24 1018.21 1019.17 1020.19 1021.17 1021.90 1022.71 1023.58 1024.34 1025.04 1025.64 1026.14 1026.78 1027.01 1027.43 1027.87 1028.36 1029.00 1029.41 1029.87 1030.32 1030.61 1030.96 1031.44 1031.65 1031.83 1031.97 1032.59
1003.18 1003.06 1003.60 1004.31 1005.27 1005.94 1006.66 1007.78 1008.84 1009.90 1011.19 1012.44 1013.73 1014.90 1016.01 1017.09 1018.03 1018.84 1019.59 1020.43 1021.27 1022.02 1022.76 1023.53 1024.23 1024.94 1025.75 1026.38 1027.15 1027.74 1028.13 1028.67 1028.91 1029.34 1029.85 1030.34 1030.74 1031.12 1031.40 1031.60 1031.63 1032.01 1032.19
1003.57 1003.35 1003.62 1003.73 1004.45 1005.58 1006.52 1007.48 1008.52 1009.55 1010.96 1012.19 1013.39 1014.58 1015.65 1016.60 1017.54 1018.20 1018.81 1019.47 1020.09 1020.61 1021.47 1022.30 1023.14 1024.04 1024.86 1025.39 1026.05 1026.79 1027.62 1028.23 1028.84 1029.49 1030.14 1030.61 1030.87 1031.12 1031.30 1031.42 1031.58 1031.81 1031.95
1004.07 1003.55 1003.81 1004.45 1004.76 1005.41 1006.35 1007.28 1008.21 1009.17 1010.63 1012.07 1013.12 1014.03 1015.07 1016.19 1017.08 1017.98 1018.96 1019.35 1019.71 1020.10 1020.75 1021.51 1022.10 1022.93 1023.30 1024.29 1025.07 1025.79 1026.53 1027.40 1028.35 1029.12 1029.67 1030.02 1030.31 1030.48 1030.75 1031.07 1031.25 1031.42 1031.53
Wind_Speed
11 12 12 9 9 7 9 8 10 7 8 6 5 4 4 3 4 4 5 5 5 6 4 4 4 4 4 5 4 3 7 4 4 5 4 4 6 5 4 4 4 5 5
13 13 13 10 10 9 9 8 8 7 4 4 4 4 4 3 3 3 5 5 6 5 5 5 4 2 6 5 4 2 4 3 2 4 4 3 4 5 5 5 5 6 6
20 15 15 13 10 11 11 10 9 8 6 7 7 5 5 4 2 3 3 4 6 6 5 4 4 3 3 5 3 3 4 4 4 6 2 3 3 1 4 7 5 6 6
17 14 15 13 13 10 7 9 9 8 7 7 7 6 4 4 2 2 2 4 5 6 6 4 4 5 3 5 5 4 3 4 5 3 4 4 4 4 3 3 4 6 7
20 18 17 15 11 8 7 7 8 8 7 8 8 6 7 3 3 4 6 5 5 6 5 5 6 6 4 6 6 6 6 3 4 3 1 5 4 4 3 3 1 4 4
17 15 15 15 13 10 8 7 8 7 7 7 7 8 10 7 5 4 4 3 4 4 5 6 5 5 5 6 6 6 8 6 7 5 4 2 2 1 3 4 1 2 1
20 19 18 17 16 16 12 10 9 8 7 7 7 7 9 8 8 6 5 5 3 2 4 4 5 4 5 6 6 7 7 6 7 6 4 4 4 2 2 4 1 2 1
19 20 19 17 17 17 15 14 13 11 9 8 8 7 9 5 4 5 4 4 4 4 3 5 6 6 6 6 7 5 5 6 6 8 6 5 4 4 2 3 4 1 2
19 19 18 17 17 16 18 17 14 12 11 10 8 8 8 8 7 6 5 4 5 4 5 6 6 6 6 7 6 5 5 7 6 6 7 5 4 4 4 3 2 3 2
16 15 16 16 15 15 14 14 15 15 13 11 10 9 9 8 8 7 7 7 6 6 6 6 6 6 6 6 6 5 5 7 4 5 7 5 3 5 4 4 4 3 3
19 18 17 16 15 14 14 14 14 15 13 12 10 10 9 9 9 8 7 6 6 7 7 6 6 6 6 6 6 6 6 7 7 6 6 6 5 4 4 4 4 4 2
22 19 19 16 15 15 15 16 14 13 13 12 11 11 9 10 10 9 8 7 7 6 7 7 6 6 6 6 7 6 6 7 7 6 6 6 4 5 4 4 4 4 3
17 16 16 17 17 17 17 16 15 14 14 13 12 10 10 10 10 10 9 8 8 7 6 6 7 6 6 6 6 6 6 6 6 6 6 6 6 5 2 3 4 2 2
20 20 18 18 17 17 17 15 15 15 15 14 13 12 12 12 11 10 10 9 8 8 7 6 6 7 6 6 6 6 6 6 6 6 6 6 6 5 4 3 3 2 3
17 18 18 17 17 16 15 14 14 15 15 14 13 13 12 11 11 11 11 9 9 8 7 7 6 6 6 5 7 6 6 7 6 5 5 5 6 7 4 3 2 3 3
19 20 19 18 19 20 20 17 17 17 16 15 14 13 12 13 13 12 11 11 9 8 7 7 7 7 4 10 10 8 6 6 7 6 5 5 7 7 8 9 8 5 3
18 18 20 21 19 20 20 20 19 16 17 15 14 14 13 13 13 12 12 12 11 8 8 7 7 7 6 10 11 10 6 6 6 6 6 5 3 6 5 9 10 8 7
16 18 17 18 18 14 15 15 16 17 17 15 15 14 14 14 13 13 13 11 9 10 8 7 7 6 5 9 11 10 7 6 6 6 6 6 5 4 6 5 5 3 2
14 18 19 19 16 17 17 17 17 17 16 16 16 16 15 15 14 14 13 10 9 6 6 7 8 7 6 9 10 9 6 6 6 5 6 6 6 6 10 6 5 3 0
8 9 12 12 15 16 18 19 18 18 18 17 17 16 16 16 15 14 13 8 9 9 8 7 8 9 8 11 11 8 4 5 4 3 4 8 7 8 9 5 5 4 2
13 8 12 18 19 18 19 19 18 20 17 15 15 15 15 15 14 13 10 11 9 9 8 9 6 7 8 8 13 12 5 5 4 4 4 4 9 10 9 8 5 4 4
8 15 13 13 16 19 18 18 19 15 15 16 15 15 14 11 10 13 10 11 11 10 8 7 5 5 6 9 12 13 9 8 6 5 4 5 12 11 10 7 6 4 2
7 13 15 15 14 17 19 18 16 16 16 15 14 14 13 12 12 13 11 9 10 9 8 8 7 5 4 4 11 13 11 10 5 5 8 12 13 12 8 8 8 4 1
6 10 13 15 15 16 16 13 15 18 17 16 15 13 13 11 11 9 9 10 10 9 9 8 7 5 5 5 4 4 5 5 4 5 6 5 6 5 4 3 5 4 3
6 8 13 15 16 15 14 13 16 17 15 14 13 13 11 12 11 10 11 10 10 12 11 9 8 9 7 7 10 10 7 6 5 6 3 3 3 4 4 3 4 4 3
6 5 7 7 11 14 13 14 16 17 16 13 11 11 10 9 9 8 4 8 6 14 13 13 11 5 9 17 18 18 15 15 14 4 4 4 5 6 5 5 4 3 4
Wind_Direction
169 148 136 132 124 128 138 145 135 139 133 128 120 80 92 54 46 57 56 63 70 59 46 55 73 52 88 112 98 95 101 65 115 99 75 59 47 50 51 56 78 69 66
156 150 145 145 157 156 154 151 140 150 147 114 112 121 130 87 91 83 57 42 64 63 62 41 37 60 108 80 95 118 111 88 3 141 113 118 32 18 24 29 60 59 69
169 164 158 160 153 165 167 158 148 151 140 114 108 82 78 76 67 37 48 50 67 66 69 75 83 56 36 101 82 81 125 132 37 39 119 120 132 156 1 23 43 70 71
182 168 162 165 166 170 157 150 149 147 134 130 115 140 127 126 147 112 78 64 73 73 62 51 56 76 61 83 84 76 81 111 133 76 35 57 136 163 145 25 31 60 69
187 176 172 164 162 158 158 159 146 136 148 142 142 144 110 112 111 90 94 77 60 69 70 61 57 58 69 70 79 71 69 63 109 107 115 49 62 50 128 137 118 49 22
185 180 174 158 161 164 155 158 154 148 154 144 142 145 134 137 125 123 115 104 78 71 71 70 73 72 78 83 80 79 74 82 78 73 60 102 116 64 99 105 130 147 206
178 174 175 171 171 173 172 167 164 162 155 147 149 152 141 145 152 156 146 133 122 76 83 87 78 70 74 74 77 76 75 65 81 80 74 62 62 87 83 86 116 142 205
178 180 178 176 177 178 177 175 173 170 161 155 161 156 142 141 148 151 143 138 128 126 126 109 98 87 83 77 74 77 83 83 80 81 73 72 50 49 58 118 136 55 8
186 181 176 176 175 180 182 178 173 173 166 165 157 161 143 142 155 145 135 135 125 127 132 116 107 97 91 91 90 88 85 82 82 84 79 74 52 54 54 60 88 137 142
188 180 180 179 179 179 176 173 177 173 166 165 167 165 157 149 142 140 149 150 144 128 129 122 115 111 109 110 101 90 88 93 81 88 84 69 57 61 49 54 48 52 121
188 184 182 182 178 170 171 173 176 168 166 165 166 153 155 155 144 149 153 152 140 144 138 135 132 132 127 119 105 104 103 97 96 83 90 82 79 69 59 55 52 45 62
186 179 178 173 171 169 170 176 175 168 168 166 164 158 154 155 149 153 155 152 152 154 147 142 140 139 131 132 125 120 122 117 109 108 99 97 90 76 74 74 77 70 38
174 168 169 176 174 173 177 176 175 166 165 165 163 151 157 159 159 159 157 156 151 154 147 140 142 143 144 138 131 130 129 126 124 122 113 118 108 93 90 90 82 64 68
171 171 174 177 175 176 178 175 172 168 165 167 162 160 166 165 165 159 159 157 156 149 152 155 151 149 150 143 139 132 132 130 125 122 120 126 115 120 118 96 104 99 94
171 176 177 175 173 174 177 171 171 169 168 166 165 169 168 161 157 159 161 155 155 158 157 152 156 154 151 155 147 141 142 134 130 133 131 125 124 101 114 141 158 122 91
180 183 181 175 179 179 181 171 171 171 167 169 168 165 163 161 162 162 159 158 160 156 152 159 159 162 165 161 152 146 151 149 144 151 138 136 102 82 87 82 100 119 113
184 182 182 182 183 185 179 179 170 161 169 167 164 165 165 164 164 163 160 164 166 149 163 163 159 171 180 169 158 151 153 146 153 153 150 147 116 112 106 83 80 77 86
191 190 186 185 188 177 175 163 163 164 169 168 166 166 166 165 163 164 167 165 161 164 164 164 166 165 185 171 159 155 153 152 164 164 166 153 150 136 135 107 99 93 80
216 194 189 184 174 172 164 160 161 166 170 171 172 170 168 166 166 170 168 166 155 156 163 164 163 173 183 172 161 147 155 159 168 168 162 153 149 150 150 133 133 121 13
268 220 175 165 164 169 161 160 167 169 178 175 174 170 169 169 173 169 168 163 165 166 163 162 171 181 180 178 176 162 156 157 154 132 147 158 158 160 151 142 149 150 213
266 161 169 179 172 164 162 169 169 183 177 167 165 167 170 172 170 162 164 160 161 160 167 172 175 180 179 183 177 175 168 167 165 164 167 173 163 160 155 151 161 183 188
202 166 169 174 170 166 166 173 183 168 162 161 163 167 168 167 160 162 159 162 161 164 171 167 181 190 182 177 186 181 178 161 160 180 170 171 174 172 172 164 196 184 155
217 174 169 159 169 173 174 176 173 159 155 160 163 164 162 164 162 163 164 162 168 174 179 185 187 191 178 181 186 186 178 165 162 166 176 172 178 182 187 199 209 185 133
216 172 160 163 171 179 180 171 158 156 157 160 161 160 162 159 163 167 168 169 177 181 183 188 188 178 174 181 168 167 159 147 139 131 151 162 164 167 181 211 208 193 191
249 176 180 177 176 169 167 156 157 155 159 159 159 162 165 166 168 176 178 184 193 186 185 193 180 174 197 198 171 169 174 174 162 122 108 142 166 191 209 210 200 191 198
296 168 168 168 163 162 159 153 158 157 155 158 163 165 162 166 168 165 142 28 189 181 180 165 172 188 167 160 173 180 176 163 152 132 171 182 193 197 203 199 193 187 197